DW8122 Weather Reports


Display with metric or nautical units.
time (UTC)temp
F
wind
direction
speed
MPH
gust
MPH
rain 1hr
in
rain 24hr
in
rain mn
in
humidity
%
barometer
mb
20260506211439 67 265 2.0 3.0 0.00 0.20 0.20 78 1005.5
20260506210936 67 310 1.0 2.0 0.00 0.20 0.20 78 1005.3
20260506210433 67 293 2.0 2.0 0.00 0.20 0.20 78 1005.2
20260506205930 67 292 1.0 2.0 0.00 0.20 0.20 78 1005.3
20260506205426 67 281 3.0 4.0 0.00 0.20 0.20 78 1005.1
20260506204922 68 271 4.0 4.0 0.00 0.20 0.20 76 1005.2
20260506204420 68 280 3.0 4.0 0.00 0.20 0.20 77 1005.2
20260506203918 68 247 4.0 6.0 0.00 0.20 0.20 76 1005.1
20260506203414 68 283 5.0 7.0 0.00 0.20 0.20 76 1005.1
20260506202911 68 267 4.0 6.0 0.00 0.20 0.20 77 1005.0
20260506202409 67 260 3.0 6.0 0.00 0.20 0.20 78 1005.0
20260506201905 67 253 4.0 6.0 0.00 0.20 0.20 78 1005.2
20260506201403 67 274 2.0 6.0 0.00 0.20 0.20 79 1005.2
20260506200859 67 278 4.0 6.0 0.00 0.20 0.20 78 1005.2
20260506200355 66 269 5.0 6.0 0.00 0.20 0.20 80 1005.0
20260506195851 66 260 4.0 4.0 0.00 0.20 0.20 80 1005.1
20260506195349 66 254 4.0 8.0 0.00 0.20 0.20 79 1005.3
20260506194846 66 269 5.0 7.0 0.00 0.20 0.20 79 1005.3
20260506194342 66 269 4.0 6.0 0.00 0.20 0.20 81 1005.3
20260506193840 66 283 3.0 3.0 0.00 0.20 0.20 80 1005.5
20260506193336 66 277 4.0 6.0 0.00 0.20 0.20 81 1005.4
20260506192833 66 271 4.0 6.0 0.00 0.20 0.20 81 1005.5
20260506192330 66 272 3.0 6.0 0.00 0.20 0.20 80 1005.4
20260506191827 66 273 3.0 4.0 0.00 0.20 0.20 81 1005.4
20260506191323 66 277 2.0 4.0 0.00 0.20 0.20 82 1005.5
20260506190820 66 264 4.0 6.0 0.00 0.20 0.20 81 1005.4
20260506190316 66 288 4.0 6.0 0.00 0.20 0.20 79 1005.6
20260506185813 66 267 4.0 6.0 0.00 0.20 0.20 82 1005.6
20260506185310 65 262 4.0 9.0 0.00 0.20 0.20 81 1005.6
20260506184807 66 257 4.0 6.0 0.00 0.20 0.20 81 1005.6
20260506184305 65 260 5.0 7.0 0.00 0.20 0.20 81 1005.8
20260506183802 65 262 3.0 3.0 0.00 0.20 0.20 83 1005.7
20260506183257 65 266 4.0 6.0 0.00 0.20 0.20 83 1005.9
20260506182754 64 259 3.0 4.0 0.00 0.20 0.20 85 1005.9
20260506182251 63 259 4.0 4.0 0.00 0.20 0.20 86 1005.9
20260506181749 63 290 4.0 4.0 0.00 0.20 0.20 86 1006.2
20260506181247 62 291 2.0 4.0 0.00 0.20 0.20 87 1006.2
20260506180744 62 279 2.0 3.0 0.00 0.20 0.20 87 1006.3
20260506180239 62 307 1.0 6.0 0.00 0.20 0.20 87 1006.3
20260506175736 62 295 2.0 3.0 0.00 0.20 0.20 87 1006.3
20260506175233 62 261 7.0 9.0 0.00 0.20 0.20 87 1006.5
20260506174730 62 297 3.0 4.0 0.00 0.20 0.20 87 1006.5
20260506174227 62 280 2.0 6.0 0.00 0.20 0.20 87 1006.4
20260506173725 62 277 3.0 6.0 0.00 0.20 0.20 87 1006.3
20260506173221 62 271 3.0 3.0 0.00 0.20 0.20 87 1006.3
20260506172718 62 287 2.0 6.0 0.00 0.20 0.20 87 1006.2
20260506172215 62 274 3.0 4.0 0.00 0.20 0.20 87 1006.2
20260506171713 62 251 2.0 3.0 0.00 0.20 0.20 87 1006.3
20260506171210 62 292 2.0 6.0 0.00 0.20 0.20 87 1006.2
20260506170707 62 234 2.0 4.0 0.00 0.20 0.20 87 1006.3
20260506170204 62 304 4.0 6.0 0.00 0.20 0.20 87 1006.1
20260506165702 61 303 2.0 6.0 0.00 0.20 0.20 87 1006.2
20260506165158 61 279 2.0 6.0 0.00 0.20 0.20 88 1006.2
20260506164655 61 261 4.0 4.0 0.00 0.20 0.20 88 1006.3
20260506164153 62 266 3.0 3.0 0.00 0.20 0.20 88 1006.0
20260506163649 62 229 2.0 3.0 0.00 0.20 0.20 88 1006.3
20260506163145 62 311 2.0 7.0 0.00 0.20 0.20 88 1006.3
20260506162641 62 251 6.0 8.0 0.00 0.20 0.20 88 1006.3
20260506162138 62 252 3.0 4.0 0.00 0.20 0.20 89 1006.1
20260506161635 62 272 3.0 6.0 0.00 0.20 0.20 88 1006.5
20260506161132 62 309 1.0 2.0 0.00 0.20 0.20 89 1006.5
20260506160630 62 220 2.0 6.0 0.07 0.20 0.20 89 1006.0
20260506160126 62 205 2.0 3.0 0.07 0.20 0.20 89 1006.2
20260506155625 62 308 1.0 3.0 0.00 0.19 0.19 90 1006.0
20260506155122 61 321 0.0 2.0 0.05 0.19 0.19 91 1006.1
20260506153224 61 216 1.0 3.0 0.12 0.18 0.18 90 1006.9
20260506152721 61 256 1.0 3.0 0.05 0.17 0.17 90 1007.0
20260506152218 61 248 2.0 3.0 0.07 0.16 0.16 90 1007.2
20260506151717 61 283 2.0 3.0 0.12 0.16 0.16 90 1007.0
20260506151213 61 338 1.0 2.0 0.05 0.15 0.15 90 1007.2
20260506150710 61 295 2.0 2.0 0.07 0.14 0.14 90 1007.3
20260506150207 61 298 1.0 2.0 0.14 0.14 0.14 90 1007.3
20260506145704 61 254 0.0 2.0 0.12 0.13 0.13 90 1007.1
20260506145200 61 339 1.0 2.0 0.12 0.12 0.12 89 1007.2
20260506144658 61 333 2.0 3.0 0.12 0.11 0.11 88 1007.1
20260506144155 61 287 1.0 3.0 0.07 0.09 0.09 88 1006.9
20260506143653 62 297 0.0 2.0 0.07 0.09 0.09 88 1007.0
20260506143150 62 323 2.0 2.0 0.00 0.08 0.08 87 1007.1
20260506142648 62 320 0.0 2.0 0.05 0.08 0.08 88 1006.7
20260506142146 62 228 1.0 2.0 0.00 0.07 0.07 88 1007.1
20260506141644 61 232 1.0 2.0 0.07 0.07 0.07 88 1007.1
20260506141142 61 312 0.0 2.0 0.07 0.07 0.07 88 1007.0
20260506140639 61 260 1.0 2.0 0.05 0.06 0.06 87 1007.1
20260506140136 61 299 2.0 2.0 0.12 0.06 0.06 86 1007.1
20260506135633 61 318 1.0 2.0 0.07 0.05 0.05 86 1007.0
20260506135129 62 296 1.0 3.0 0.05 0.04 0.04 85 1006.9
20260506134626 62 283 1.0 2.0 0.12 0.04 0.04 84 1007.0
20260506134121 62 264 0.0 1.0 0.12 0.03 0.03 84 1007.0
20260506133619 62 323 1.0 2.0 0.05 0.02 0.02 82 1007.2
20260506133116 62 323 0.0 2.0 0.07 0.01 0.01 82 1006.9
20260506132613 63 278 1.0 2.0 0.00 0.00 0.00 82 1007.1
20260506132110 63 333 1.0 2.0 0.00 0.00 0.00 81 1007.0
20260506131607 63 299 1.0 3.0 0.00 0.00 0.00 80 1007.0
20260506131103 63 285 2.0 4.0 0.00 0.00 0.00 81 1007.1
20260506130600 63 220 1.0 2.0 0.00 0.00 0.00 81 1007.2
20260506130058 63 287 2.0 3.0 0.00 0.00 0.00 80 1007.1
20260506125556 63 332 1.0 3.0 0.00 0.00 0.00 80 1007.1
20260506125054 63 276 2.0 2.0 0.00 0.00 0.00 79 1007.3
20260506124551 63 269 1.0 3.0 0.00 0.00 0.00 79 1007.2
20260506124049 63 328 2.0 7.0 0.00 0.00 0.00 79 1007.3
20260506123546 63 262 2.0 4.0 0.00 0.00 0.00 78 1007.3
20260506123045 64 298 4.0 4.0 0.00 0.00 0.00 77 1007.4
20260506122541 64 242 4.0 6.0 0.00 0.00 0.00 77 1007.4
20260506122039 64 278 4.0 6.0 0.00 0.00 0.00 76 1007.5
20260506121536 64 234 2.0 6.0 0.00 0.00 0.00 76 1007.1
20260506121032 64 255 4.0 8.0 0.00 0.00 0.00 75 1007.1
20260506120531 64 247 2.0 6.0 0.00 0.00 0.00 74 1007.0
20260506120028 64 256 4.0 4.0 0.00 0.00 0.00 74 1007.1
20260506115526 64 216 2.0 3.0 0.00 0.00 0.00 74 1007.0
20260506115024 64 273 2.0 6.0 0.00 0.00 0.00 74 1006.9
20260506114521 64 299 1.0 4.0 0.00 0.00 0.00 74 1006.9
20260506114019 64 278 2.0 4.0 0.00 0.00 0.00 74 1006.8
20260506113517 64 304 1.0 3.0 0.00 0.00 0.00 74 1006.8
20260506113014 64 259 4.0 8.0 0.00 0.00 0.00 73 1006.7
20260506112510 64 190 2.0 6.0 0.00 0.00 0.00 74 1006.7
20260506112008 64 318 3.0 7.0 0.00 0.00 0.00 73 1006.5
20260506111506 64 327 2.0 3.0 0.00 0.00 0.00 74 1006.7
20260506111002 64 272 3.0 4.0 0.00 0.00 0.00 73 1006.4
20260506110500 64 314 1.0 7.0 0.00 0.00 0.00 74 1006.5
20260506105957 64 306 1.0 3.0 0.00 0.00 0.00 74 1006.4
20260506105453 64 332 1.0 2.0 0.00 0.00 0.00 74 1006.5
20260506104951 64 232 2.0 2.0 0.00 0.00 0.00 74 1006.2
20260506104449 64 302 1.0 3.0 0.00 0.00 0.00 73 1006.3
20260506103947 64 140 2.0 6.0 0.00 0.00 0.00 74 1006.3
20260506103443 64 231 2.0 6.0 0.00 0.00 0.00 73 1006.3
20260506102940 64 330 1.0 2.0 0.00 0.00 0.00 74 1006.2
20260506102438 64 160 2.0 2.0 0.00 0.00 0.00 73 1006.2
20260506101935 64 283 1.0 4.0 0.00 0.00 0.00 73 1006.3
20260506101431 64 203 2.0 3.0 0.00 0.00 0.00 73 1006.2
20260506100929 64 289 3.0 4.0 0.00 0.00 0.00 73 1006.2
20260506100427 64 284 1.0 3.0 0.00 0.00 0.00 73 1006.1
20260506095925 64 337 1.0 2.0 0.00 0.00 0.00 72 1006.1
20260506095423 64 336 1.0 3.0 0.00 0.00 0.00 72 1006.1
20260506094919 65 277 1.0 2.0 0.00 0.00 0.00 72 1006.4
20260506094418 65 245 1.0 3.0 0.00 0.00 0.00 71 1006.1
20260506093915 65 283 1.0 3.0 0.00 0.00 0.00 71 1006.2
20260506093413 65 253 2.0 2.0 0.00 0.00 0.00 71 1006.0
20260506092910 65 336 1.0 2.0 0.00 0.00 0.00 70 1006.0
20260506092408 65 211 3.0 6.0 0.00 0.00 0.00 70 1006.2
20260506091904 65 302 1.0 2.0 0.00 0.00 0.00 70 1006.3
20260506091403 65 330 0.0 6.0 0.00 0.00 0.00 70 1006.3
20260506090859 66 332 0.0 2.0 0.00 0.00 0.00 70 1006.3
20260506090357 66 243 2.0 2.0 0.00 0.00 0.00 69 1006.4
20260506085854 66 317 0.0 4.0 0.00 0.00 0.00 69 1006.3
20260506085350 66 295 1.0 3.0 0.00 0.00 0.00 69 1006.3
20260506084847 66 189 1.0 2.0 0.00 0.00 0.00 68 1006.6
20260506084343 66 215 1.0 3.0 0.00 0.00 0.00 68 1006.4
20260506083840 66 174 2.0 3.0 0.00 0.00 0.00 68 1006.4
20260506083337 66 242 1.0 3.0 0.00 0.00 0.00 67 1006.5
20260506082835 66 344 1.0 3.0 0.00 0.00 0.00 67 1006.2
20260506082331 66 333 0.0 2.0 0.00 0.00 0.00 67 1006.2
20260506081827 66 262 1.0 3.0 0.00 0.00 0.00 66 1006.3
20260506081326 66 325 1.0 2.0 0.00 0.00 0.00 66 1006.4
20260506080823 66 249 0.0 2.0 0.00 0.00 0.00 65 1006.3
20260506080319 67 343 1.0 2.0 0.00 0.00 0.00 65 1006.4
20260506073303 67 351 2.0 2.0 0.00 0.00 0.00 63 1006.4
20260506072800 67 346 1.0 2.0 0.00 0.00 0.00 62 1006.5
20260506072258 67 242 2.0 3.0 0.00 0.00 0.00 62 1006.6
20260506071755 67 331 0.0 6.0 0.00 0.00 0.00 62 1006.6
20260506071253 67 253 1.0 2.0 0.00 0.00 0.00 62 1006.5
20260506070750 67 287 2.0 2.0 0.00 0.00 0.00 62 1006.7
20260506070247 67 313 1.0 2.0 0.00 0.00 0.00 62 1006.8
20260506062224 68 295 0.0 3.0 0.00 0.00 0.00 59 1007.1
20260506061720 68 312 0.0 2.0 0.00 0.00 0.00 58 1007.4
20260506061217 68 316 1.0 2.0 0.00 0.00 0.00 58 1007.3
20260506060716 68 234 1.0 2.0 0.00 0.00 0.00 58 1007.2
20260506060212 68 336 1.0 2.0 0.00 0.00 0.00 57 1007.5
20260506051144 68 306 1.0 2.0 0.00 0.00 0.00 55 1007.6
20260506050643 68 316 1.0 2.0 0.00 0.00 0.00 55 1007.8
20260506050139 68 238 1.0 3.0 0.00 0.00 0.00 55 1007.4
20260506045132 68 294 1.0 2.0 0.00 0.00 0.00 54 1007.7
20260506044631 69 320 0.0 2.0 0.00 0.00 0.00 53 1007.7
20260506044127 69 269 2.0 2.0 0.00 0.00 0.00 53 1008.0
20260506043624 69 271 1.0 3.0 0.00 0.00 0.00 53 1007.8
20260506043123 69 343 2.0 4.0 0.00 0.00 0.00 53 1007.7
20260506042621 69 323 1.0 3.0 0.00 0.00 0.00 53 1007.9
20260506042119 68 273 2.0 2.0 0.00 0.00 0.00 53 1007.7
20260506041618 68 199 3.0 4.0 0.00 0.00 0.00 54 1007.8
20260506041114 68 307 1.0 1.0 0.00 0.00 0.00 54 1007.8
20260506040612 68 343 1.0 3.0 0.00 0.00 0.00 53 1007.8
20260506040108 68 229 1.0 2.0 0.00 0.00 0.00 53 1007.7
20260506035605 68 212 1.0 3.0 0.00 0.00 0.00 54 1007.6
20260506035101 67 306 1.0 2.0 0.00 0.00 0.00 54 1007.6
20260506034559 67 279 1.0 2.0 0.00 0.00 0.00 55 1007.7
20260506034056 67 291 1.0 1.0 0.00 0.00 0.00 54 1007.5
20260506033553 68 322 1.0 1.0 0.00 0.00 0.00 54 1007.5
20260506033050 68 315 1.0 2.0 0.00 0.00 0.00 53 1007.3
20260506032547 68 331 1.0 1.0 0.00 0.00 0.00 53 1007.7
20260506032044 68 7 1.0 2.0 0.00 0.00 0.00 52 1007.7
20260506031542 69 285 0.0 2.0 0.00 0.00 0.00 51 1007.7
20260506031038 69 302 0.0 1.0 0.00 0.00 0.00 50 1007.5
20260506030536 69 299 1.0 2.0 0.00 0.00 0.00 49 1007.7
20260506030033 69 318 1.0 2.0 0.00 0.00 0.00 49 1007.4
20260506025530 69 279 2.0 3.0 0.00 0.00 0.00 49 1007.8
20260506025026 69 272 2.0 3.0 0.00 0.00 0.00 50 1007.6
20260506024523 69 301 2.0 2.0 0.00 0.00 0.00 50 1007.6
20260506024020 69 331 1.0 2.0 0.00 0.00 0.00 50 1007.8
20260506023516 69 333 1.0 3.0 0.00 0.00 0.00 50 1007.7
20260506023014 69 297 2.0 3.0 0.00 0.00 0.00 50 1007.6
20260506022511 69 295 0.0 1.0 0.00 0.00 0.00 51 1007.7
20260506022008 69 284 1.0 2.0 0.00 0.00 0.00 51 1007.5
20260506021506 69 311 1.0 1.0 0.00 0.00 0.00 51 1007.7
20260506021003 69 316 0.0 2.0 0.00 0.00 0.00 51 1007.8
20260506020500 69 292 1.0 1.0 0.00 0.00 0.00 51 1007.7
20260506015957 69 313 0.0 2.0 0.00 0.00 0.00 50 1007.6
20260506015454 69 316 0.0 2.0 0.00 0.00 0.00 50 1007.7
20260506014951 69 260 1.0 2.0 0.00 0.00 0.00 50 1007.8
20260506014448 69 323 0.0 2.0 0.00 0.00 0.00 49 1007.4
20260506013944 69 349 1.0 2.0 0.00 0.00 0.00 49 1007.7
20260506013443 70 337 0.0 1.0 0.00 0.00 0.00 49 1007.3
20260506012939 70 312 0.0 0.0 0.00 0.00 0.00 48 1007.5
20260506012435 70 285 1.0 1.0 0.00 0.00 0.00 48 1007.0
20260506011932 70 322 0.0 1.0 0.00 0.00 0.00 48 1007.3
20260506011430 71 309 0.0 1.0 0.00 0.00 0.00 47 1007.2
20260506010926 71 313 0.0 2.0 0.00 0.00 0.00 46 1007.1
20260506010426 71 315 0.0 1.0 0.00 0.00 0.00 46 1006.9
20260506005921 72 310 1.0 2.0 0.00 0.00 0.00 44 1007.1
20260506005419 71 246 1.0 2.0 0.00 0.00 0.00 45 1007.0
20260506004914 71 268 2.0 2.0 0.00 0.00 0.00 45 1006.9
20260506004413 72 326 0.0 2.0 0.00 0.00 0.00 45 1006.8
20260506003908 72 232 1.0 1.0 0.00 0.00 0.00 44 1006.8
20260506003404 72 320 0.0 2.0 0.00 0.00 0.00 44 1006.9
20260506002901 72 331 0.0 1.0 0.00 0.00 0.00 43 1006.7
20260506002357 73 308 1.0 2.0 0.00 0.00 0.00 43 1006.9
20260506001853 73 1 0.0 1.0 0.00 0.00 0.00 41 1006.8
20260506001350 73 207 2.0 2.0 0.00 0.00 0.00 41 1006.7
20260506000847 73 299 0.0 1.0 0.00 0.00 0.00 41 1006.8
20260506000346 74 313 0.0 1.0 0.00 0.00 0.00 40 1006.5
20260505235841 74 319 1.0 1.0 0.00 0.00 0.00 40 1006.8
20260505235339 74 319 0.0 1.0 0.00 0.00 0.00 40 1006.6
20260505234836 74 321 0.0 1.0 0.00 0.00 0.00 40 1006.5
20260505234334 74 320 1.0 2.0 0.00 0.00 0.00 39 1006.6
20260505233830 74 7 1.0 2.0 0.00 0.00 0.00 39 1006.5
20260505233328 75 305 0.0 2.0 0.00 0.00 0.00 39 1006.6
20260505232825 75 336 0.0 1.0 0.00 0.00 0.00 39 1006.3
20260505232323 75 314 1.0 2.0 0.00 0.00 0.00 39 1006.2
20260505231820 75 294 1.0 2.0 0.00 0.00 0.00 39 1006.3
20260505231318 75 315 1.0 1.0 0.00 0.00 0.00 40 1006.2
20260505230816 75 288 1.0 3.0 0.00 0.00 0.00 40 1006.3
20260505230312 75 330 1.0 2.0 0.00 0.00 0.00 40 1006.3
20260505225809 76 326 1.0 3.0 0.00 0.00 0.00 41 1006.4
20260505225306 76 290 1.0 1.0 0.00 0.00 0.00 40 1006.3
20260505224801 77 323 1.0 2.0 0.00 0.00 0.00 40 1006.4
20260505224259 77 294 2.0 3.0 0.00 0.00 0.00 38 1006.4
20260505223756 77 308 1.0 2.0 0.00 0.00 0.00 39 1006.5
20260505223253 77 291 1.0 2.0 0.00 0.00 0.00 39 1006.3
20260505222748 77 270 2.0 3.0 0.00 0.00 0.00 39 1006.3
20260505222245 78 350 1.0 3.0 0.00 0.00 0.00 39 1006.3
20260505221742 78 308 1.0 2.0 0.00 0.00 0.00 40 1006.5
20260505221239 78 283 2.0 2.0 0.00 0.00 0.00 38 1006.5
20260505220735 78 295 1.0 4.0 0.00 0.00 0.00 38 1006.5
20260505220233 78 343 1.0 3.0 0.00 0.00 0.00 38 1006.4
20260505215731 78 260 2.0 6.0 0.00 0.00 0.00 37 1006.2
20260505215229 78 214 2.0 4.0 0.00 0.00 0.00 37 1006.3
20260505214726 78 224 2.0 4.0 0.00 0.00 0.00 39 1006.4
20260505214224 78 270 1.0 3.0 0.00 0.00 0.00 38 1006.4
20260505213721 78 305 2.0 2.0 0.00 0.00 0.00 38 1006.3
20260505213218 79 274 2.0 2.0 0.00 0.00 0.00 38 1006.3
20260505212714 79 328 2.0 3.0 0.00 0.00 0.00 38 1006.3
20260505212211 79 288 1.0 4.0 0.00 0.00 0.00 37 1006.3